Olympia, WA
on Tuesday, November 13, 2012

Tuesday
Previous Day Next Day
Daily Summary
 ActualAverageRecord
Temperature
Mean Temperature °F 44°F  
Max Temperature 52°F 51°F 60°F (1997)
Min Temperature 45°F 37°F 13°F (1955)
Degree Days
Heating Degree Days 16 21  
Month to date heating degree days 235 257  
Since 1 July heating degree days 1013 1051  
Cooling Degree Days 0 0  
Month to date cooling degree days 0 0  
Year to date cooling degree days 82 106  
Moisture
Dew Point 47°F   
Average Humidity 95    
Maximum Humidity 100    
Minimum Humidity 89    
Precipitation
Precipitation 0.16 in 0.30 in 2.59 in (1998)
Month to date precipitation 2.36 3.47  
Year to date precipitation 43.06 37.38  
Wind
Wind Speed 3 mph   
Max Wind Speed 9 mph   
Max Gust Speed 13 mph   
Visibility 6 miles   
Events Fog , Rain   

Key: T is trace of precipitation, MM is missing value
Source: NWS Daily Summary
Time(PST)TemperatureDew PointHumidity Pressure Visibility Wind DirectionWind SpeedGust SpeedPrecipitationEvents Conditions
12:54 AM 48.0°F 46.9°F 96% 30.22 in 8.0 miles Calm Calm - N/A   Mostly Cloudy
1:54 AM 48.0°F 46.9°F 96% 30.22 in 6.0 miles Calm Calm - N/A   Overcast
2:54 AM 48.9°F 46.9°F 93% 30.21 in 6.0 miles SSW 6.9 mph - 0.00 in Rain Light Rain
3:31 AM 48.2°F 46.4°F 93% 30.20 in 5.0 miles SW 6.9 mph - 0.01 in Rain Light Rain
3:44 AM 48.2°F 46.4°F 93% 30.21 in 3.0 miles SSW 5.8 mph - 0.02 in Rain Light Rain
3:51 AM 48.2°F 46.4°F 93% 30.21 in 2.5 miles SW 5.8 mph - 0.03 in Rain Light Rain
3:54 AM 48.9°F 46.9°F 93% 30.21 in 3.0 miles SW 5.8 mph - 0.03 in Rain Light Rain
4:13 AM 48.2°F 46.4°F 93% 30.20 in 6.0 miles SSW 8.1 mph - 0.01 in   Overcast
4:49 AM 48.2°F 46.4°F 93% 30.20 in 9.0 miles SSW 5.8 mph - 0.01 in   Overcast
4:54 AM 48.9°F 46.9°F 93% 30.21 in 9.0 miles SSW 5.8 mph - 0.01 in   Overcast
5:12 AM 48.2°F 46.4°F 93% 30.20 in 4.0 miles SSW 6.9 mph - 0.00 in Rain Light Rain
5:38 AM 46.4°F 46.4°F 100% 30.21 in 10.0 miles SSW 4.6 mph - 0.01 in   Mostly Cloudy
5:52 AM 46.4°F 46.4°F 100% 30.20 in 9.0 miles SSW 4.6 mph - 0.01 in   Mostly Cloudy
5:54 AM 46.0°F 46.0°F 100% 30.21 in 9.0 miles SSW 4.6 mph - 0.01 in   Mostly Cloudy
6:06 AM 46.4°F 44.6°F 93% 30.20 in 10.0 miles SSW 4.6 mph - N/A   Scattered Clouds
6:17 AM 46.4°F 46.4°F 100% 30.20 in 10.0 miles SSW 4.6 mph - N/A   Mostly Cloudy
6:54 AM 46.0°F 45.0°F 96% 30.20 in 10.0 miles SSW 4.6 mph - N/A   Mostly Cloudy
7:37 AM 46.4°F 46.4°F 100% 30.20 in 10.0 miles SW 4.6 mph - N/A   Mostly Cloudy
7:54 AM 48.2°F 46.4°F 93% 30.20 in 10.0 miles SW 4.6 mph - N/A   Overcast
8:23 AM 48.2°F 46.4°F 93% 30.20 in 10.0 miles SW 4.6 mph - N/A   Overcast
8:54 AM 48.0°F 46.9°F 96% 30.21 in 10.0 miles SW 3.5 mph - N/A   Overcast
9:54 AM 48.9°F 46.9°F 93% 30.20 in 7.0 miles SW 4.6 mph - 0.01 in Rain Light Rain
10:54 AM 50.0°F 48.9°F 96% 30.20 in 6.0 miles SW 3.5 mph - 0.01 in   Overcast
11:54 AM 52.0°F 48.9°F 89% 30.18 in 7.0 miles SSW 5.8 mph - N/A   Overcast
12:54 PM 52.0°F 48.9°F 89% 30.17 in 9.0 miles SSW 6.9 mph - N/A   Overcast
1:54 PM 51.1°F 48.9°F 92% 30.16 in 4.0 miles Calm Calm - 0.01 in Rain Light Rain
2:54 PM 51.1°F 48.9°F 92% 30.15 in 6.0 miles Calm Calm - 0.04 in Rain Light Rain
3:54 PM 51.1°F 48.9°F 92% 30.15 in 5.0 miles SSW 3.5 mph - 0.01 in Rain Light Rain
4:54 PM 50.0°F 48.9°F 96% 30.14 in 6.0 miles Calm Calm - 0.01 in Rain Light Rain
5:54 PM 48.9°F 48.0°F 97% 30.14 in 5.0 miles Calm Calm - 0.01 in   Overcast
6:54 PM 48.0°F 46.9°F 96% 30.14 in 3.0 miles Calm Calm - N/A   Overcast
7:54 PM 46.9°F 46.0°F 97% 30.15 in 0.5 miles Calm Calm - 0.00 in Fog Fog
8:03 PM 46.4°F 46.4°F 100% 30.14 in 1.8 miles Calm Calm - N/A   Overcast
8:10 PM 46.4°F 46.4°F 100% 30.15 in 2.5 miles Calm Calm - N/A   Overcast
8:21 PM 48.2°F 48.2°F 100% 30.15 in 4.0 miles West 3.5 mph - N/A   Overcast
8:54 PM 48.0°F 46.9°F 96% 30.15 in 3.0 miles Calm Calm - N/A   Overcast
9:07 PM 46.4°F 46.4°F 100% 30.15 in 1.8 miles Calm Calm - 0.00 in Rain Light Rain
9:19 PM 48.2°F 46.4°F 93% 30.15 in 3.0 miles Calm Calm - 0.00 in Rain Light Rain
9:54 PM 48.0°F 46.9°F 96% 30.17 in 3.0 miles Calm Calm - 0.01 in   Overcast
10:01 PM 48.2°F 48.2°F 100% 30.16 in 3.0 miles Calm Calm - N/A   Overcast
10:15 PM 48.2°F 48.2°F 100% 30.16 in 4.0 miles Calm Calm - N/A   Overcast
10:54 PM 48.9°F 48.0°F 97% 30.18 in 3.0 miles WSW 3.5 mph - 0.00 in Rain Light Rain
11:33 PM 48.2°F 48.2°F 100% 30.18 in 5.0 miles SSW 5.8 mph - 0.00 in   Overcast
11:46 PM 48.2°F 48.2°F 100% 30.18 in 5.0 miles WSW 5.8 mph - 0.00 in   Overcast
11:54 PM 48.9°F 48.0°F 97% 30.19 in 4.0 miles WSW 3.5 mph - 0.00 in   Overcast
Moon Phase
Nov. 13 Nov. 13 Nov. 20 Nov. 28 Dec. 06
Sunrise:07:12 AM (PST) Moon Rise:06:58 AM (PST)11/13
Sunset:04:38 PM (PST) Moon Set:04:34 PM (PST)11/13

Copyright © 2014 The Weather Underground, Inc.